カタログに戻る

COSMOS 663 DEB

運用中PO
NORAD 53881·DEBRIS·🇷🇺 Russia

打ち上げ Jun 27, 1974 から Plesetsk Cosmodrome

Loading…

次のパス (今後24時間)

TLE

最新Source: Space-Track

元期: Sep 12, 2026, 08:07 UTC

1 53881U 74048D   26255.33872095  .00000298  00000-0  28473-3 0  9991
2 53881  82.9469 108.6112 0025752   2.4669 357.6611 13.77373016203756

AllMySatでCOSMOS 663 DEBをリアルタイム追跡

Download on the App Store